Lid_Strength_Index
5 5 6 6 6 7 6 6 6 6 6 6 6 6 5 5 5 5 6 4 7 9 8 7 6 7 7 8 11 8 8 8 8 11 10 11 11 9 11 10 13 14 14 14 13 16 17 7 8 14 10 10 11 10
5 5 7 7 6 6 6 6 6 6 6 6 6 6 5 5 5 4 7 4 4 8 7 5 5 4 5 5 7 7 8 8 7 9 8 9 11 9 10 15 7 13 12 14 14 15 6 5 7 6 8 10 10 11
5 5 6 6 6 6 6 6 6 6 6 6 6 6 5 5 5 4 4 3 6 8 7 6 6 4 3 3 2 8 7 6 6 3 7 8 11 8 13 12 10 8 7 12 13 8 7 6 5 7 9 9 9 9
5 6 6 6 6 6 6 7 7 6 6 6 6 6 5 5 5 4 4 4 4 7 10 6 3 4 3 2 2 2 3 2 3 4 7 9 11 7 10 10 10 8 8 10 10 8 7 6 8 9 9 9 9 9
5 5 5 5 5 5 6 6 6 6 6 6 6 6 5 5 5 4 3 4 3 7 10 8 4 3 2 2 2 2 3 5 6 8 9 9 7 8 7 8 10 7 9 11 12 7 8 8 9 8 10 10 9 10
6 6 6 5 5 5 5 6 6 6 6 6 5 5 5 5 4 4 6 3 3 3 8 10 4 4 2 2 2 2 3 5 5 7 7 6 5 8 11 11 6 5 5 5 7 5 6 8 8 9 10 10 9 10
6 6 6 5 5 5 5 5 6 5 6 6 5 5 5 4 4 6 7 5 3 3 7 9 7 3 3 3 2 3 3 5 6 7 8 7 7 7 10 12 7 5 4 5 4 7 9 8 8 8 9 9 9 9
5 5 5 5 5 5 5 5 5 6 6 5 5 5 4 4 4 5 3 2 2 4 4 9 9 6 3 5 6 3 6 6 6 7 6 8 7 8 12 7 6 5 4 5 6 8 7 7 8 9 9 9 10 11
6 6 6 6 5 5 6 6 6 6 5 5 5 4 4 4 6 4 3 2 0 3 8 9 10 10 4 5 4 4 5 9 6 9 8 7 9 12 9 7 7 6 7 7 8 7 7 8 9 10 9 10 11 11
6 6 6 6 6 6 6 6 6 6 5 5 5 5 7 5 4 3 4 6 6 7 7 9 7 9 6 6 7 7 6 9 11 8 6 10 10 6 6 5 5 5 6 8 8 9 8 9 10 10 10 10 11 12
6 6 6 6 6 6 6 6 6 6 5 5 6 7 4 3 4 5 7 8 9 10 8 7 7 8 5 9 8 7 8 7 11 10 11 11 11 8 5 6 5 5 6 7 7 8 7 9 10 11 11 11 11 11
6 6 6 6 6 6 7 7 6 5 5 6 6 4 5 6 7 10 10 9 9 11 7 7 7 6 5 5 9 8 9 8 12 7 11 13 10 8 6 6 5 6 7 8 8 8 9 10 10 10 11 11 11 11
6 6 6 6 6 6 6 6 5 5 4 3 7 9 9 8 12 13 14 12 10 8 7 7 8 7 5 5 8 9 11 11 7 11 13 11 10 8 6 5 6 6 7 7 8 8 9 10 9 10 11 10 10 11
6 6 6 6 6 6 6 5 4 4 4 7 10 13 11 12 11 10 10 9 8 7 7 7 8 8 6 7 7 11 8 9 13 14 13 11 10 7 5 5 6 7 7 8 9 9 10 10 10 10 10 10 10 11
6 6 6 6 6 5 4 4 4 3 5 9 10 14 12 9 8 7 6 7 7 6 6 8 8 7 9 9 7 8 11 14 13 13 12 12 9 7 5 5 6 7 7 8 9 9 10 10 10 10 10 10 10 10
5 5 6 5 5 4 4 4 4 4 6 9 10 12 9 10 9 8 7 7 5 6 6 7 9 10 11 9 10 11 13 14 13 11 11 11 9 6 5 5 5 6 6 7 8 8 9 10 10 10 10 10 10 10
5 6 5 4 4 4 4 4 6 9 10 11 10 8 8 8 9 8 7 7 5 7 10 8 12 12 9 11 11 9 11 9 8 9 9 10 9 6 4 4 5 5 6 7 8 8 9 9 9 10 11 10 10 9
5 4 4 4 3 4 4 5 8 10 12 9 11 9 7 7 7 6 5 5 5 7 7 10 8 11 12 13 10 8 7 7 7 8 9 9 8 5 4 4 5 5 5 7 7 8 8 9 10 10 10 9 9 9
4 3 4 4 4 5 8 8 7 12 10 8 7 7 6 6 5 5 4 4 4 4 5 8 10 11 10 9 9 8 8 8 8 8 9 8 8 5 4 3 5 5 5 6 6 7 8 8 9 9 9 8 9 9
4 4 4 4 5 7 10 9 7 9 10 7 7 7 7 6 5 6 6 5 5 7 9 9 8 8 7 7 6 7 7 5 7 9 10 8 8 6 3 3 5 5 5 5 6 8 7 8 8 8 8 8 9 9
4 4 4 4 6 7 7 8 8 8 7 8 6 7 8 7 7 7 7 5 7 9 9 6 5 6 5 5 6 6 6 7 8 9 10 9 8 5 4 3 4 6 6 6 7 7 8 7 8 8 8 8 8 8
4 4 4 5 7 7 8 6 7 7 9 9 10 10 10 10 9 9 7 9 9 7 6 5 5 5 6 6 6 6 6 6 6 8 9 8 8 5 5 4 4 6 6 6 6 6 7 7 6 7 7 8 8 8
4 5 5 6 9 9 10 6 10 10 12 10 9 10 10 9 7 5 9 7 6 5 4 5 5 5 5 5 6 6 6 6 8 8 7 7 4 4 3 4 4 5 6 6 5 5 5 8 7 6 6 6 7 7
4 6 8 9 9 11 8 10 9 10 9 10 11 11 11 10 7 8 8 7 5 4 5 5 6 6 6 6 7 7 7 6 7 7 6 4 5 5 3 4 3 3 4 5 5 5 4 4 7 5 5 6 6 6
9 9 9 11 8 11 11 11 10 10 12 11 11 10 9 11 12 10 10 7 5 6 6 6 6 6 7 7 7 6 6 7 7 5 3 3 5 5 5 4 3 3 3 4 5 6 5 5 4 4 5 5 5 6
11 9 11 10 10 11 10 12 11 11 10 11 10 10 7 9 11 11 9 6 5 5 6 6 7 7 7 6 7 6 5 3 2 4 4 4 4 4 4 4 4 4 3 4 4 5 6 5 5 5 5 5 9 6
12 10 8 7 8 9 10 9 9 10 11 11 10 9 9 12 12 9 6 4 5 4 5 5 6 6 6 5 5 2 1 1 2 2 2 3 3 3 3 4 4 3 2 3 3 4 5 6 5 5 5 5 5 5
9 9 11 9 9 9 11 11 11 11 10 8 9 10 11 11 10 6 5 3 2 2 3 3 3 2 2 2 1 2 2 2 1 1 2 2 2 1 1 2 2 8 3 2 3 3 4 4 4 5 5 5 5 5
10 8 9 11 10 10 10 10 10 9 9 10 10 9 8 6 4 4 3 2 2 2 3 3 3 1 1 1 1 2 2 2 3 4 4 4 3 3 2 2 2 2 2 2 12 7 4 4 4 4 3 4 3 3
10 8 10 10 10 10 9 10 10 8 7 6 5 5 5 4 3 1 2 2 3 3 2 2 2 2 3 3 3 3 2 1 1 2 3 3 2 1 1 1 1 1 1 2 3 4 10 4 6 3 3 3 2 2
6 7 8 8 9 7 6 5 5 5 5 5 4 5 6 5 3 2 2 2 2 2 2 3 2 2 2 2 2 3 3 1 0 0 0 0 0 0 0 0 0 1 1 1 2 2 2 2 2 2 2 2 2 2
7 8 9 9 8 5 4 5 6 6 6 6 6 5 5 5 6 4 2 1 2 3 5 3 2 2 1 1 0 0 4 1 0 0 0 0 0 -0 -0 -0 -0 -0 0 1 1 1 1 1 1 1 1 1 1 1
7 7 7 7 7 7 5 5 7 7 6 7 7 6 6 6 7 4 1 0 1 2 2 1 1 0 0 0 0 0 2 1 6 10 9 9 7 4 -0 -0 -0 -0 0 0 0 1 1 1 1 1 1 2 2 3